Regional Weather Roundup
Issued by NWS Sioux Falls, SD

Home | Current Version | Previous Version | Text Only | Print | Product List | Glossary On
Versions: 1 2 3 4 5 6 7 8 9 10 11 12 13 14 15 16 17 18 19 20 21 22 23 24 25 26 27 28 29 30 31 32 33 34 35 36 37 38 39 40 41 42 43 44 45 46 47 48 49 50
000
ASUS43 KFSD 270602
RWRFSD

WEATHER ROUNDUP FOR SE SOUTH DAKOTA/SW MINNESOTA/NW IOWA
NATIONAL WEATHER SERVICE SIOUX FALLS SD
100 AM CDT FRI MAY 27 2016

NOTE: "FAIR" INDICATES FEW OR NO CLOUDS BELOW 12,000 FEET WITH NO
SIGNIFICANT WEATHER AND OR OBSTRUCTIONS TO VISIBILITY.


SDZ038>040-050-052>070-270700-
SOUTHEAST SOUTH DAKOTA

CITY           SKY/WX    TMP DP  RH WIND       PRES   REMARKS
BROOKINGS      CLOUDY    63  54  72 E3        29.81F
CHAMBERLAIN    NOT AVBL
HURON          CLOUDY    61  56  83 E8        29.80S
6HR MIN TEMP:  60; 6HR MAX TEMP:  74;

MADISON        FAIR      61  61 100 S5        29.81F
MITCHELL       CLOUDY    62  58  86 E6        29.79F
6HR MIN TEMP:  62; 6HR MAX TEMP:  74;

SIOUX FALLS    LGT RAIN  58  53  84 CALM      29.81S
6HR MIN TEMP:  58; 6HR MAX TEMP:  73; 6HR PCP: TRACE;

WINNER         CLOUDY    60  52  74 SE7       29.84S
YANKTON        CLOUDY    63  55  77 S9        29.79S
$$

MNZ071-072-080-081-089-090-097-098-270700-
SOUTHWEST MINNESOTA

CITY           SKY/WX    TMP DP  RH WIND       PRES   REMARKS
FAIRMONT       CLOUDY    64  55  72 CALM      29.84R
JACKSON        CLOUDY    63  54  72 CALM      29.85F
LUVERNE        CLOUDY    61  55  82 SE6       29.85R
MARSHALL       CLOUDY    65  54  67 S6        29.83R
6HR MIN TEMP:  64; 6HR MAX TEMP:  78;

MONTEVIDEO     MOCLDY    63  50  63 CALM      29.83S
PIPESTONE      CLOUDY    63  55  77 SE7       29.82F
REDWOOD FALLS  CLOUDY    66  55  67 S8        29.82S
TRACY          CLOUDY    67  57  70 S7        29.84S
WINDOM         CLOUDY    64  57  77 CALM      29.86R
WORTHINGTON    CLOUDY    62  58  86 SE3       29.86S
$$

IAZ001>003-012>014-020>022-031-032-NEZ013-014-SDZ071-270700-
NORTHWEST IOWA

CITY           SKY/WX    TMP DP  RH WIND       PRES   REMARKS
ESTHERVILLE    CLOUDY    61  57  87 NW7       29.84R
SIOUX CITY     CLOUDY    63  54  72 S8        29.81R
6HR MIN TEMP:  62; 6HR MAX TEMP:  74;

SPENCER        CLOUDY    60  56  86 NE3       29.83S
6HR MIN TEMP:  59; 6HR MAX TEMP:  73;

STORM LAKE     CLOUDY    61  55  82 NW9       29.83R
$$

ABBREVIATIONS USED IN REMARKS
   TC - TEMPERATURE IN CELSIUS
  WCI - WIND CHILL INDEX
   HX - HEAT INDEX
  VSB - VISIBILITY





USA.gov is the U.S. government's official web portal to all federal, state and local government web resources and services.